Location: Leeds
(37.2390°N, 113.3580°W)
Time: 11:33:33
(UTC-06:00)

Daily predictions for brighter satellites

Satellite Brightness Start Highest point End
(mag) Time Altitude Azimuth Time Altitude Azimuth Time Altitude Azimuth
Cosmos 1151 Rocket 3.6 21:22:07 10° N 21:26:13 40° E 21:30:18 10° SSE
CZ-4 DEB 2.7 21:23:10 10° SSE 21:26:21 80° ENE 21:29:34 10° N
DELTA 2 R/B (1) 3.7 21:28:45 10° WNW 21:34:18 72° SSW 21:39:49 10° ESE
SPOT 5 4.0 21:31:11 10° SE 21:35:01 27° ENE 21:39:04 10° NNE
ATLAS CENTAUR R/B 4.2 21:35:34 10° W 21:37:06 12° WSW 21:38:35 10° SW
H-2A R/B 2.3 21:38:28 10° SSW 21:39:38 12° S 21:40:31 10° SSE
Cosmos 405 3.1 21:36:14 10° N 21:39:51 63° E 21:43:24 10° SSE
Cosmos 1441 Rocket 4.4 21:36:53 10° SSW 21:40:29 44° WNW 21:44:06 10° N
Cosmos 2219 3.2 21:36:47 10° S 21:42:27 66° ESE 21:48:10 10° NNE
USA 186 3.2 21:41:27 10° SSW 21:43:22 24° W 21:45:20 10° NW
Cosmos 1328 4.1 21:39:52 10° SSE 21:43:38 45° E 21:47:26 10° NNE
Cosmos 1805 Rocket 4.4 21:39:57 10° SSE 21:43:54 32° E 21:47:52 10° NNE
Cosmos 1680 Rocket 3.6 21:38:59 10° NNW 21:44:13 65° ENE 21:49:26 10° SSE
Aureole 3 4.5 21:41:24 10° S 21:47:50 57° E 21:52:59 10° NNE
Cosmos 2237 Rocket 4.2 21:45:14 10° NNE 21:48:15 14° NE 21:51:15 10° E
Cosmos 923 Rocket 4.1 21:44:28 10° NNW 21:49:42 84° WSW 21:54:53 10° SSE
Cosmos 2322 Rocket 3.9 21:46:01 10° NW 21:50:49 30° WSW 21:55:37 10° SSW
Cosmos 1898 Rocket 4.0 21:49:12 10° SSE 21:53:57 38° ESE 21:58:45 10° NE
Cosmos 2322 3.8 21:48:27 10° NNW 21:54:12 87° WSW 21:59:54 10° SSE
Cosmos 2266 Rocket 4.1 21:50:28 10° S 21:56:46 85° W 22:02:59 10° N
Cosmos 2360 Rocket 2.3 21:52:55 10° NNW 21:58:35 78° WSW 22:04:14 10° SSE
Cosmos 1437 2.9 21:55:50 10° SSW 21:59:07 75° W 22:02:24 10° N
OTV 4 1.0 21:56:24 10° SW 21:59:09 35° SSE 22:01:14 15° E
H-2A R/B 2.2 21:56:40 10° SSE 22:01:11 85° ENE 22:05:44 10° NNW
SL-14 R/B 4.1 21:58:27 13° SSE 22:01:26 33° E 22:05:03 10° NNE
SL-16 R/B 4.2 21:59:20 10° NW 22:03:51 25° WSW 22:08:21 10° SSW
YAOGAN 6 3.9 22:02:03 16° ESE 22:04:02 26° ENE 22:07:04 10° NNE
Cosmos 1674 3.8 22:01:11 10° SSW 22:04:52 46° W 22:08:38 10° N
Cosmos 1707 Rocket 4.1 22:00:51 10° N 22:04:59 40° E 22:07:56 17° SE
Cosmos 1666 Rocket 4.0 22:03:02 12° SSE 22:06:47 42° E 22:10:58 10° NNE
NOSS 3-1 (A) 3.3 22:01:28 10° SSW 22:07:13 71° ESE 22:13:34 10° NE
Cosmos 2150 Rocket 4.2 22:02:03 10° S 22:07:20 55° ESE 22:12:41 10° NNE
Cosmos 1908 4.1 22:03:41 10° NNW 22:07:29 49° W 22:11:15 10° SSW
Terra 4.0 22:10:33 10° E 22:12:12 12° ENE 22:13:52 10° NE
Cosmos 2315 Rocket 4.0 22:06:33 10° N 22:12:46 74° E 22:18:28 12° SSE
Meteor 1-27 4.4 22:08:41 10° N 22:14:15 56° ENE 22:18:22 18° SSE
ERBS 2.4 22:15:54 10° SSW 22:19:18 51° SE 22:22:43 10° NE
CZ-4 SHROUD 3.2 22:18:06 25° SSE 22:19:44 68° ENE 22:22:51 10° N
Tiangong 1 2.2 22:17:15 10° W 22:20:14 43° NNW 22:23:12 10° ENE
Cosmos 1300 2.7 22:18:50 10° N 22:22:40 66° E 22:24:51 24° SSE
Cosmos 1244 Rocket 4.5 22:17:11 10° S 22:23:28 76° E 22:29:44 10° N
Cosmos 2227 Rocket 2.7 22:21:20 16° SSE 22:25:17 37° ESE 22:30:27 10° NE
ERS-1 Rocket 4.1 22:20:49 10° SSW 22:25:31 40° W 22:30:15 10° NNW
OAO 2 Rocket 3.4 22:23:01 10° WSW 22:28:16 63° S 22:32:37 15° E
ATLAS 2AS CENTAUR R/B 3.3 22:22:37 10° S 22:29:24 43° ESE 22:36:44 10° NE
Envisat 3.4 22:25:39 12° S 22:30:18 62° W 22:35:21 10° NNW
NOSS 0 Rocket 4.5 22:28:09 10° N 22:34:02 45° ENE 22:37:28 23° ESE
MetOp-A 4.1 22:32:42 20° SSE 22:36:32 89° WSW 22:41:54 10° NNW
Lacrosse 4 Rocket 4.0 22:36:31 10° NNE 22:37:53 11° NE 22:39:15 10° ENE
Cosmos 2058 3.7 22:34:54 10° SSW 22:38:52 49° W 22:42:52 10° N
Meteor 1-11 4.4 22:33:43 10° SSW 22:39:29 77° W 22:45:13 10° N
Hubble Space Telescope 2.5 22:37:11 10° SW 22:39:08 18° SSW 22:39:08 18° SSW
Cosmos 1745 Rocket 4.1 22:36:47 21° SSE 22:40:47 54° E 22:46:46 10° NNE
Delta 2 Rocket 3.0 22:38:17 10° W 22:41:52 55° S 22:42:30 46° SSE
ATLAS 3B R/B 4.1 22:36:11 10° NNW 22:41:56 26° NE 22:46:35 13° E
USA 32 4.2 22:37:43 10° N 22:42:55 58° E 22:45:26 29° SSE
SL-16 R/B 4.1 22:39:41 10° NNE 22:43:27 18° NE 22:46:17 13° E
Cosmos 1455 3.5 22:41:40 10° NNE 22:44:52 25° ENE 22:45:10 25° E
CZ-4 R/B 3.8 22:41:51 10° NNE 22:46:43 63° ESE 22:49:17 27° S
Cosmos 2333 Rocket 2.7 22:41:22 10° N 22:46:56 47° ENE 22:49:33 28° ESE
ARGOS 3.2 22:45:02 29° SSE 22:47:49 67° ENE 22:53:10 10° N
Cosmos 1937 Rocket 3.5 22:44:07 10° SSW 22:49:22 87° WNW 22:54:35 10° NNE
Cosmos 2297 Rocket 2.5 22:49:41 30° SSE 22:51:53 43° ESE 22:57:12 10° NE
Cosmos 1726 2.4 22:48:12 10° NNW 22:51:58 64° W 22:53:31 32° SSW
Cosmos 990 Rocket 3.8 22:53:14 20° S 22:56:46 77° ESE 23:01:55 10° NNE
Sich 1 3.7 22:54:15 14° SSW 22:57:51 54° W 23:02:11 10° N
COSMOS 2455 4.2 22:53:03 10° N 22:58:09 28° NE 23:01:03 19° E
Cosmos 2219 Rocket 2.1 22:52:37 10° NNW 22:58:14 77° ENE 23:00:38 36° SSE
COSMOS 2428 3.3 22:53:14 10° NNW 22:58:42 50° WSW 23:02:02 23° S
CARTOSAT-1 4.3 23:02:15 34° E 23:02:58 36° ENE 23:06:55 10° N
Cosmos 1862 Rocket 3.9 22:59:56 10° N 23:04:07 46° E 23:04:43 43° ESE
Cosmos 1633 Rocket 3.9 23:01:05 15° SSW 23:04:28 48° W 23:08:42 10° N
Meteor 1-4 Rocket 2.8 23:01:05 10° NNW 23:04:46 63° W 23:05:37 47° SSW
Cosmos 2242 Rocket 3.8 23:03:16 10° NNW 23:07:43 66° W 23:09:29 35° SSW
CZ-4B R/B 4.2 23:05:22 10° N 23:10:29 54° WNW 23:15:17 11° SSW
Meteor 2-10 4.2 23:05:50 10° N 23:11:36 87° W 23:14:03 36° S
SPOT 5 4.5 23:09:53 14° SSW 23:12:59 27° W 23:17:05 10° NW
USA 245 4.3 23:14:25 25° WNW 23:14:25 25° WNW 23:15:52 10° NW
IGS 5A 3.8 23:20:10 48° E 23:20:22 49° ENE 23:24:24 10° N
Cosmos 1869 3.4 23:16:29 10° N 23:20:29 58° E 23:20:30 58° E
Cosmos 1980 3.6 23:15:22 10° NNW 23:21:03 85° ENE 23:22:45 47° SSE
Cosmos 292 Rocket 4.4 23:19:07 10° NNW 23:23:40 46° WSW 23:25:07 35° SSW
Cosmos 1271 Rocket 3.9 23:23:03 10° NNW 23:26:37 36° W 23:27:29 31° WSW
Cosmos 1346 4.3 23:27:13 41° NW 23:27:13 41° NW 23:29:46 10° N
H-2A R/B 2.1 23:27:08 51° SSE 23:28:33 80° ENE 23:34:01 10° N
CZ-4C R/B 3.3 23:30:31 60° WNW 23:30:31 60° WNW 23:33:43 10° NNW
DELTA 2 DEB (DPAF) 4.3 23:29:49 55° SSW 23:30:37 69° WSW 23:35:06 10° NNW
Cosmos 1626 2.4 23:31:10 60° W 23:31:22 61° W 23:35:06 10° N
NOSS 2-3 (C) 4.3 23:32:08 44° E 23:32:08 44° E 23:36:41 10° NE
Cosmos 2237 Rocket 2.1 23:27:18 10° NNW 23:33:02 83° WSW 23:34:29 52° S
Landsat 7 3.9 23:32:29 54° SSW 23:33:26 71° WSW 23:38:12 10° NNW
OTV 4 3.3 23:32:25 10° W 23:32:49 13° W 23:32:49 13° W
Cosmos 2082 4.3 23:31:20 12° SW 23:36:33 56° WNW 23:42:11 10° NNE
Cosmos 1125 Rocket 3.4 23:40:44 59° S 23:41:46 83° ESE 23:47:06 10° NNE
Cosmos 44 Rocket 3.7 23:42:24 50° E 23:42:24 50° E 23:46:54 10° NE
Cosmos 1048 Rocket 4.4 23:39:09 10° N 23:44:22 50° ENE 23:45:02 47° E
Terra 1.8 23:48:51 65° SW 23:49:18 70° WSW 23:54:04 10° NNW
Okean 1-7 4.2 23:45:58 10° NNE 23:49:08 31° ENE 23:49:08 31° ENE
NOSS 2-3 (D) 3.8 23:52:54 70° E 23:52:54 70° E 23:58:06 10° NE
Tiangong 1 3.4 23:54:31 10° WNW 23:56:26 24° NNW 23:56:26 24° NNW
